Home   Weather   35°01'N, 85°11'W   Past weeks
Flag for USA

Past Weather in 35°01'N, 85°11'W, USA — Yesterday and Last 2 Weeks

Now
51 °F

Scattered clouds.


Feels Like: 48 °F
Forecast: 64 / 40 °F
Wind: 8 mph from Northeast

Location: Lovell Field

Current Time: Mar 23, 2019 at 11:36:16 am

Latest Report: Mar 23, 2019 at 10:53 am


Visibility: 10 mi

Pressure: 30.32 "Hg

Humidity: 35%

Dew Point: 24 °F

Location of 35°01'N, 85°11'WLocation

Past Weather in 35°01'N, 85°11'W — Graph

°F

35°01'N, 85°11'W Temperature Yesterday

Maximum temperature yesterday: 66 °F (at 3:53 pm)
Minimum temperature yesterday: 37 °F (at 7:53 am)
Average temperature yesterday: 52 °F

High & Low Weather Summary for the Past Weeks

 TemperatureHumidityPressure
High74 °F (Mar 10, 5:53 pm)94% (Mar 14, 10:33 pm)30.44 "Hg (Mar 14, 10:33 pm)
Low32 °F (Mar 20, 6:53 am)16% (Mar 18, 3:42 pm)29.86 "Hg (Mar 14, 6:53 pm)
Average53 °F56%30.16 "Hg
* Reported Mar 8 8:53 am — Mar 23 9:53 am, 35°01'N, 85°11'W. Weather by CustomWeather, © 2019

Note: Actual official high and low records may vary slightly from our data, if they occured in-between our weather recording intervals... More about our weather records

Advertising

35°01'N, 85°11'W Weather History for the Previous 24 Hours

Scroll right to see more
 ConditionsComfort  
Time TempWeatherWind HumidityBarometerVisibility
9:53 am
Sat, Mar 23
49 °FScattered clouds.9 mph41%30.29 "Hg10 mi
8:53 am45 °FScattered clouds.3 mph49%30.27 "Hg10 mi
7:53 am41 °FScattered clouds.No wind58%30.25 "Hg10 mi
6:53 am43 °FClear.9 mph51%30.21 "Hg10 mi
5:53 am44 °FClear.8 mph53%30.19 "Hg10 mi
4:53 am47 °FClear.10 mph50%30.16 "Hg10 mi
3:53 am48 °FClear.9 mph50%30.16 "Hg10 mi
2:53 am49 °FClear.10 mph48%30.14 "Hg10 mi
1:53 am52 °FClear.14 mph41%30.12 "Hg10 mi
12:53 am54 °FClear.17 mph38%30.12 "Hg10 mi
11:53 pm
Fri, Mar 22
51 °FClear.8 mph42%30.12 "Hg10 mi
10:53 pm52 °FClear.No wind45%30.09 "Hg10 mi
9:53 pm51 °FClear.3 mph52%30.07 "Hg10 mi
8:53 pm59 °FClear.5 mph28%30.06 "Hg10 mi
7:53 pm62 °FClear.8 mph26%30.05 "Hg10 mi
6:53 pm65 °FSunny.13 mph23%30.02 "Hg10 mi
5:53 pm66 °FSunny.15 mph22%30.01 "Hg10 mi
4:53 pm66 °FSunny.14 mph23%30.01 "Hg10 mi
3:53 pm66 °FSunny.17 mph23%30.01 "Hg10 mi
2:53 pm64 °FSunny.13 mph25%30.03 "Hg10 mi
1:53 pm60 °FSunny.10 mph32%30.06 "Hg10 mi
12:53 pm57 °FSunny.6 mph37%30.09 "Hg10 mi
11:53 am56 °FSunny.6 mph40%30.10 "Hg10 mi
Weather by CustomWeather, © 2019

See weather overview